Tracking 30995 objects as of 7-Jul-2025
HD Live streaming from Space Station
objects crossing your sky now

GEESAT 3-07

Track GEESAT 3-07 now!
10-day predictions


NORAD ID: 61017
Int'l Code: 2024-159G
Perigee: 590.2 km
Apogee: 599.1 km
Inclination: 50.0 °
Period: 96.4 minutes
Semi major axis: 6965 km
RCS: Unknown
Launch date: September 5, 2024
Source: People's Republic of China (PRC)
Launch site: Taiyaun Space Center, China (TSC)
Your satellite tracking list
Your tracking list is empty




NASA's NSSDC Master Catalog

Two Line Element Set (TLE):
1 61017U 24159G   25187.64593356  .00002368  00000-0  24646-3 0  9994
2 61017  49.9927 250.9498 0006354 354.3936   5.6934 14.93349030 45366
Source of the keplerian elements: AFSPC